Regional Weather Roundup
Issued by NWS

Home | Current Version | Previous Version | Text Only | Print | Product List | Glossary On
Versions: 1 2 3 4 5 6 7 8 9 10 11 12 13 14 15 16 17 18 19 20 21 22 23 24 25 26 27 28 29 30 31 32 33 34 35 36 37 38 39 40 41 42 43 44 45 46 47 48 49 50
000
ASCA44 KEWX 291320
RWRMX

LATIN AMERICA AND CARIBBEAN REGIONAL WEATHER ROUNDUP
NATIONAL WEATHER SERVICE AUSTIN/SAN ANTONIO TX
800 AM CDT MON MAY 29 2017

NOTE: "FAIR" INDICATED FEW OR NO CLOUDS BELOW 12,000 FEET WITH NO
SIGNIFICANT WEATHER AND/OR OBSTRUCTIONS TO VISIBILITY.

BAJA CALIFORNIA

CITY           SKY/WX    TMP DP  RH WIND       PRES   REMARKS
LORETO         CLEAR     73  64  73 CALM      29.79
MEXICALI       CLEAR     68  39  34 SW3       29.76
S.J. DEL CABO  CLEAR     68  41  37 NW6       29.84S
TIJUANA        DRIZZLE   59  54  82 CALM      29.95S

NORTHWESTERN MEXICO

CITY           SKY/WX    TMP DP  RH WIND       PRES   REMARKS
CULIACAN       CLEAR     73  70  88 CALM      29.86R
DURANGO        CLEAR     54  41  62 SW5       30.17
HERMOSILLO     CLEAR     72  39  30 CALM      29.83R
CD. JUAREZ     SUNNY     66  36  32 E12       30.04S
LOS MOCHIS     FOG       64  61  88 E6        29.85  VSB 0
OBREGON        CLEAR     66  46  48 E5        29.81

NORTHEASTERN MEXICO

CITY           SKY/WX    TMP DP  RH WIND       PRES   REMARKS
CHIHUAHUA      CLEAR     68  48  49 NE7       30.12R
MATAMOROS      TSTM      70  68  94 N12       29.93F
MONCLOVA       PTSUNNY   70  59  68 E6        30.02R
MONTERREY      CLOUDY    70  66  88 CALM      30.00R
NUEVO LAREDO   CLOUDY    72  68  88 CALM      29.97R
PIEDRAS NEGRAS PTSUNNY   72  66  83 NW7       30.01R
REYNOSA        CLOUDY    68  64  88 CALM      29.98R
SALTILLO       CLOUDY    70  61  73 CALM      30.20R
TORREON        MOSUNNY   77  52  41 SE6       30.03R
CD. VICTORIA   TSTM      73  72  94 NW6       29.98R

WESTERN MEXICO

CITY           SKY/WX    TMP DP  RH WIND       PRES   REMARKS
AGUASCALIENTES SUNNY     57  46  67 E2        30.18R
COLIMA         PTCLDY    73  57  56 CALM      30.01R
DEL BAJIO      SUNNY     59  50  72 CALM      30.22S
GUADALAJARA    CLEAR     63  48  59 CALM      30.14R
MANZANILLO     CLEAR     66  59  77 N7        29.86
MAZATLAN       CLEAR     70  68  94 CALM      29.87R
P. VALLARTA    CLEAR     68  66  94 N5        29.87R
URUAPAN        CLOUDY    63  57  82 CALM      30.15R
ZACATECAS      SUNNY     57  39  51 S12       30.23R

CENTRAL MEXICO

CITY           SKY/WX    TMP DP  RH WIND       PRES   REMARKS
CUERNAVACA     PTSUNNY   68  63  83 CALM      30.10R FOG
MEXICO CITY    PTSUNNY   63  50  63 NE5       30.27R
MORELIA        SUNNY     59  59 100 CALM      30.18R
POZA RICA      MOSUNNY   81  75  83 MISG      29.85R
QUERETARO      SUNNY     61  55  82 E2        30.23R
S. LUIS POTOSI MOSUNNY   63  55  77 CALM      30.18R
TAMPICO        PTSUNNY   82  79  89 NE8       29.86R HAZE    HX  93
TOLUCA         PTSUNNY   52  48  87 CALM      30.33R HAZE

SOUTHERN MEXICO

CITY           SKY/WX    TMP DP  RH WIND       PRES   REMARKS
ACAPULCO       CLOUDY    77  75  94 E8        29.86S
B. DE HUATULCO RAIN     N/A N/A N/A MISG      29.95S
OAXACA         CLOUDY    63  61  94 S3        30.19R
P. ESCONDIDO   DRIZZLE   75  73  94 NE9       29.97F
VERACRUZ       CLOUDY    77  70  78 E3        29.85R
ZIHUATANEJO    MOSUNNY   77  75  94 N5        29.84R

YUCATAN PENINSULA

CITY           SKY/WX    TMP DP  RH WIND       PRES   REMARKS
CAMPECHE       CLOUDY    81  75  83 E12G23    29.88R
CANCUN         PTSUNNY   84  73  70 SE15      29.98S HX  91
CHETUMAL       PTSUNNY   84  75  74 E12       29.94R HX  92
CD. DEL CARMEN MOSUNNY   82  75  78 SE13      29.88R
COZUMEL        MOSUNNY   82  75  78 SE9       29.96R
MERIDA         CLOUDY    79  73  83 SE9       29.95S
MINATITLAN     PTSUNNY   79  75  89 CALM      29.85R
TAPACHULA      PTSUNNY   75  73  94 CALM      29.89R
TUX. GUTIERREZ LGT RAIN  70  68  94 SW3       29.95R FOG
VILLAHERMOSA   PTSUNNY   77  72  83 NE7       29.88R

CENTRAL AMERICA

CITY           SKY/WX    TMP DP  RH WIND       PRES   REMARKS
BELIZE CITY    PTSUNNY   84  75  74 SE7       29.93R HX  92
MANAGUA        MOSUNNY   77  72  83 S9        29.89S

CARIBBEAN

CITY           SKY/WX    TMP DP  RH WIND       PRES   REMARKS
ARUBA          MOSUNNY   86  77  74 E18       29.94R HX  97
CURACAO        MOSUNNY   86  77  74 E13       29.97S HX  97
KINGSTON       MOSUNNY   84  73  70 S3        30.00S HX  91
NASSAU         MOSUNNY   90  70  51 SE7       30.09R HX  95
SAN JUAN       MOSUNNY   84  75  74 E8        30.06R HX  92
SANTO DOMINGO  MOSUNNY   84  77  79 NE13      30.03S HX  94
ST. CROIX      MOSUNNY   86  77  74 E24       30.08R HX  97
ST. KITTS      PTSUNNY   84  79  84 NE16      30.09R HX  96
ST. MAARTEN    TSTM      81  75  83 SE25      30.06S
ST. THOMAS     SUNNY     84  77  79 SE17      30.06S HX  94

$$




USA.gov is the U.S. government's official web portal to all federal, state and local government web resources and services.